Location: Chaumontel
(49.1247°N, 2.4324°E)
Time: 23:51:53
(UTC+00:00)

SL-16 R/B - Pass Details

Date: 03 February 2023
Orbit: 842 x 845 km, 71.0° (Epoch: 01 April)

Event Time Altitude Azimuth Distance (km) Brightness Sun altitude
Rises 18:30:29 0° 216° (SW) 3,388 6.0 -16.6°
Reaches altitude 10° 18:32:56 10° 219° (SW) 2,458 5.2 -17.0°
Maximum altitude 18:38:33 65° 302° (WNW) 926 2.6 -17.9°
Drops below altitude 10° 18:44:12 10° 24° (NNE) 2,475 4.4 -18.9°
Enters shadow 18:44:41 - 25° (NNE) 2,657 4.5 -18.9°
